Theta_e
337 338 338 340 342 344 345 346 347 349 350 352 353 353 354 354 354 353 356 355 356 355 354 353 350 348 347 348 349 352 352 353 351 350 350 350 351 349 348 348 347 347 347 345 343 347 346 344 343 342 341 341 340 340 341 341 341 340 340 341 340 339 340 341 340 340 337 337 339 337 337 339 339 340 340 340 340 342 344 343 343 340 342 345 350
336 335 336 339 341 343 344 345 348 345 348 350 351 352 353 354 353 354 355 355 355 355 355 354 352 351 348 347 345 347 351 351 349 350 350 350 349 348 348 347 347 347 348 346 346 346 345 344 343 343 343 343 343 344 344 344 344 342 341 340 342 340 339 342 342 340 336 333 332 333 332 334 338 339 337 338 339 341 342 341 339 337 339 343 347
332 334 335 337 340 342 343 344 346 347 348 350 352 352 352 352 353 354 354 355 355 356 355 353 352 353 351 349 349 346 349 352 350 352 353 350 348 347 348 346 346 346 348 348 346 346 346 345 345 345 345 346 346 345 345 343 343 342 342 340 339 341 341 344 344 342 336 335 335 330 325 325 332 335 335 337 337 340 340 339 336 335 336 342 344
330 332 334 336 339 341 343 343 345 346 347 349 351 351 352 352 352 353 354 355 355 356 358 355 354 353 351 350 350 349 348 353 352 353 353 350 349 349 348 347 346 346 347 348 348 346 346 346 347 346 347 347 347 345 345 344 344 343 342 341 341 337 339 339 343 341 340 337 328 328 328 326 321 326 331 335 337 338 336 337 337 334 335 339 341
330 332 334 335 338 340 342 343 345 346 346 347 350 351 352 351 352 353 354 355 355 358 358 355 355 351 352 352 353 351 351 349 348 348 351 352 351 350 348 347 347 346 347 347 348 347 347 348 347 348 348 349 348 347 345 345 345 344 343 342 341 340 338 338 337 340 339 341 336 331 326 322 322 327 330 332 333 336 336 333 337 333 334 337 339
331 332 334 335 338 340 343 344 344 345 346 348 350 351 352 352 353 354 355 355 355 356 357 355 354 349 348 347 345 343 344 344 343 345 347 350 351 352 351 348 347 346 346 347 348 348 347 348 349 349 348 348 348 347 346 344 342 342 342 341 340 341 339 334 333 338 342 342 342 339 335 329 327 331 328 325 332 333 335 334 335 331 334 335 337
333 334 335 335 337 339 342 343 344 345 347 349 350 351 352 352 352 354 355 356 356 356 358 356 352 350 349 348 347 345 344 345 344 346 349 351 354 351 350 349 347 346 346 347 348 350 349 348 348 347 347 346 347 345 342 341 341 340 341 340 339 339 337 333 332 335 338 339 339 339 338 338 338 331 324 324 318 326 330 328 330 331 332 333 332
332 334 335 336 338 339 341 343 345 346 348 348 349 350 351 351 352 352 355 357 357 357 358 356 352 350 349 348 348 346 345 345 343 339 345 350 348 350 349 348 347 347 346 347 348 350 349 346 346 345 343 343 348 344 343 341 339 341 344 340 339 340 336 336 336 336 332 333 338 337 335 336 336 334 331 327 323 319 323 326 328 329 330 331 330
334 334 335 336 338 339 341 343 346 347 348 347 348 349 351 351 352 352 353 356 358 358 358 356 355 351 350 348 347 348 346 346 344 343 342 345 343 344 346 346 345 345 345 345 346 347 349 344 343 342 344 347 348 342 341 340 340 340 340 339 338 338 337 337 337 335 335 333 332 332 334 334 334 335 333 332 325 320 320 321 324 327 328 328 330
335 336 337 338 339 340 342 344 346 347 348 349 349 350 350 351 351 351 352 354 357 357 358 356 355 353 349 348 347 345 345 340 338 338 338 338 339 339 341 340 340 341 341 343 344 345 345 344 342 342 343 344 346 340 340 340 340 340 340 339 335 338 337 340 337 334 334 334 333 333 332 329 331 330 330 329 328 327 322 320 323 322 321 325 330
334 336 338 339 341 342 343 343 345 347 348 348 348 349 350 350 351 351 352 353 355 356 357 356 355 353 350 348 347 344 340 337 335 335 335 334 336 336 337 338 338 339 340 341 343 343 342 344 341 341 342 347 346 339 340 340 339 340 340 340 338 336 337 339 339 337 336 334 334 333 333 330 330 328 326 327 327 324 323 322 323 323 324 323 327
334 336 338 339 341 342 343 343 345 346 347 347 348 349 349 350 351 350 351 352 353 354 356 355 354 352 350 348 346 344 339 336 334 334 334 333 334 335 336 336 336 337 338 339 340 340 343 342 343 342 344 344 340 339 339 339 340 339 338 338 337 336 335 339 338 337 336 334 333 333 335 337 334 330 329 331 328 326 325 322 321 321 322 323 326
334 336 338 339 340 341 342 343 345 345 346 347 348 348 349 350 350 350 350 352 352 353 354 354 353 350 348 345 345 342 339 337 335 334 334 333 332 335 335 335 335 335 336 338 339 339 341 339 340 339 341 340 340 338 339 339 339 339 338 337 337 336 337 338 336 336 336 336 335 333 336 337 335 335 332 332 331 329 325 320 321 322 320 321 324
334 336 338 339 341 342 343 344 345 346 347 348 348 349 349 349 350 350 350 352 352 351 353 352 351 349 346 343 341 340 338 337 335 334 333 333 333 335 335 335 334 335 336 338 339 339 340 339 340 338 340 339 340 338 338 338 338 338 337 337 336 338 337 338 336 336 336 337 335 334 333 335 335 335 334 332 330 326 322 321 321 319 319 319 322
334 336 337 339 341 343 343 344 345 346 347 348 348 349 349 349 349 349 349 350 351 350 351 351 349 347 343 340 338 338 336 335 334 335 333 332 333 335 335 335 335 335 337 339 340 339 339 338 338 337 336 336 340 340 341 339 340 340 340 337 338 336 337 337 336 335 336 337 337 335 335 332 334 334 335 333 331 328 326 325 321 316 315 317 318
334 335 337 339 342 343 344 345 346 346 347 348 349 349 349 349 349 350 350 350 350 350 349 349 347 345 340 336 335 336 338 335 335 337 334 334 333 335 335 334 335 335 337 339 339 339 338 336 339 336 337 337 337 339 338 339 337 337 336 337 337 339 337 336 337 336 335 337 336 334 332 333 333 334 333 334 332 330 328 327 325 321 315 312 315
333 335 337 339 341 343 345 346 346 347 347 348 349 350 350 350 349 349 350 350 349 350 348 347 345 341 338 335 334 335 334 331 332 334 334 334 335 335 334 334 334 335 337 339 338 338 337 336 337 337 336 336 336 338 337 336 336 337 338 337 337 337 339 338 337 336 336 335 335 333 333 334 334 335 336 335 333 331 328 327 326 322 322 316 315
334 336 338 340 341 343 345 346 347 347 348 348 349 351 351 351 351 350 350 349 349 349 347 346 343 339 337 334 333 334 333 331 332 333 334 334 334 334 334 333 332 335 337 338 337 336 335 341 336 337 337 336 336 336 336 336 337 337 336 336 337 337 337 338 338 338 337 337 336 335 334 333 335 333 335 334 332 331 329 328 327 326 325 319 319
333 335 336 339 341 342 344 345 347 348 349 349 350 351 351 352 352 351 350 350 350 349 347 346 343 339 337 335 333 333 334 332 332 335 334 333 333 332 332 333 332 335 338 338 336 335 335 337 336 336 336 336 336 335 336 336 336 336 335 336 336 335 335 335 336 337 337 336 335 335 335 334 334 333 333 333 332 330 329 329 328 327 324 323 321
333 335 336 338 341 343 344 345 346 347 348 349 350 350 350 351 351 350 350 350 349 347 347 344 342 340 338 335 334 334 334 332 333 333 333 333 333 332 332 332 332 335 335 336 336 335 335 334 336 336 336 336 335 336 336 336 335 335 335 335 335 334 334 334 335 335 336 336 335 334 334 334 334 333 332 332 332 330 329 328 327 326 325 323 323
333 335 336 338 340 343 345 346 347 348 349 350 350 350 350 351 350 350 349 349 348 348 346 344 341 340 338 334 333 333 333 333 333 333 333 333 333 334 332 333 334 333 334 333 334 335 335 335 334 337 336 336 335 335 334 334 333 334 333 333 334 333 333 334 335 335 335 334 334 334 334 335 334 332 331 330 329 329 328 328 327 326 325 325 322
332 335 337 338 340 342 345 347 347 347 348 348 350 350 350 350 350 350 350 349 348 347 346 344 341 340 337 334 333 333 333 333 332 332 332 332 333 333 333 333 332 333 333 333 334 334 335 335 334 335 335 335 335 334 333 333 334 333 333 333 333 333 333 334 334 334 335 335 335 334 334 335 333 332 331 329 329 327 326 325 325 325 324 324 324
331 334 337 339 340 342 344 346 346 347 347 348 349 349 349 350 350 350 350 349 349 348 346 344 341 338 337 335 334 333 333 332 331 331 331 331 332 333 333 332 332 332 334 334 334 334 335 335 334 335 334 334 334 334 334 333 333 333 333 332 332 332 332 333 333 333 334 335 333 333 333 334 332 330 330 329 329 327 326 324 324 325 323 324 324
330 333 336 338 340 342 343 344 346 346 347 347 348 349 350 350 350 350 350 350 349 348 346 343 341 338 337 335 333 333 332 331 331 331 330 331 331 332 334 333 332 332 332 334 335 335 335 335 334 335 333 333 333 333 333 333 332 332 331 331 332 332 332 333 333 333 333 333 332 332 332 333 332 330 329 328 328 327 326 324 323 324 323 323 323
328 331 334 336 338 340 342 344 345 346 347 348 348 349 349 349 350 350 350 350 350 348 345 343 341 338 336 334 333 333 332 331 331 331 331 331 332 332 334 332 332 332 332 333 335 335 335 334 333 333 333 333 333 333 333 332 332 332 332 331 332 332 332 332 332 333 332 332 331 331 332 332 331 329 329 328 328 327 326 326 324 325 324 323 323
327 329 331 334 336 339 341 343 345 346 347 347 348 349 349 349 350 351 350 350 349 348 345 343 341 338 336 334 333 333 332 331 331 331 331 332 332 332 333 333 332 332 332 332 333 334 334 333 333 333 333 333 333 333 333 333 333 332 331 331 332 332 332 332 332 332 331 332 332 332 332 332 331 329 330 330 329 327 327 326 325 325 325 325 324
326 328 330 333 335 337 339 341 344 345 347 347 348 348 349 349 349 350 351 350 349 347 344 342 341 339 337 335 333 333 333 332 334 333 333 335 332 332 332 332 334 333 333 332 333 333 335 334 334 334 333 333 333 333 332 332 331 331 331 331 331 332 332 332 332 332 331 331 331 331 331 331 331 330 330 330 330 329 328 326 326 326 326 325 324
326 327 328 330 333 336 338 340 342 344 346 347 348 348 348 349 349 349 350 349 348 347 344 342 340 339 338 336 334 334 335 334 334 334 333 333 333 333 332 333 334 333 333 333 333 333 333 335 334 334 334 334 333 332 332 331 331 331 331 331 331 332 331 331 331 331 331 331 332 332 332 333 332 332 332 331 331 330 329 328 328 327 326 325 324
325 326 327 328 330 333 336 338 341 343 344 346 347 347 348 348 349 349 349 349 348 346 344 342 340 339 338 338 335 335 336 335 334 333 334 334 333 333 333 333 334 334 334 334 334 334 333 333 334 333 333 333 332 332 332 331 331 331 331 331 331 331 331 330 330 330 330 330 331 331 331 331 333 332 329 328 328 326 330 329 329 328 327 326 324
324 326 327 328 330 331 334 337 339 341 343 344 346 346 347 347 347 348 348 348 347 346 344 342 339 339 339 338 336 335 334 334 333 332 333 334 334 334 333 333 334 335 335 335 334 334 334 333 332 332 332 332 332 332 331 327 329 333 332 331 330 330 330 331 332 331 331 330 330 330 331 332 331 330 328 327 324 323 322 328 331 330 328 326 325
325 326 327 328 329 331 332 334 337 339 342 344 345 346 347 347 347 347 347 348 346 345 344 342 340 340 339 336 334 334 334 334 333 333 333 334 334 334 334 334 334 334 334 335 335 333 333 333 332 331 330 331 331 331 327 325 326 329 333 331 330 330 331 331 331 331 330 330 330 330 330 330 330 329 330 326 324 323 323 322 322 322 324 329 326
324 325 326 327 328 329 331 333 335 338 340 342 344 345 345 346 346 347 347 347 345 344 343 342 341 340 338 335 334 334 334 335 334 334 334 335 335 334 334 334 334 332 333 334 333 332 332 332 331 330 329 330 330 327 323 324 326 326 329 333 332 330 330 329 329 329 329 329 329 328 328 328 329 329 329 330 328 326 323 322 321 320 320 320 321
325 325 327 327 328 329 331 332 334 336 339 341 344 343 344 345 346 347 346 345 343 343 342 341 341 340 337 335 334 334 334 334 333 334 335 335 334 334 333 333 333 334 333 332 331 331 330 330 329 329 329 330 330 327 324 324 324 324 326 329 331 330 329 328 327 327 327 328 328 328 328 328 328 327 329 331 330 330 324 322 320 320 320 320 319
324 326 327 328 329 330 332 333 335 337 339 341 343 344 345 346 346 345 344 344 343 342 342 341 340 339 337 336 335 335 334 334 334 334 335 334 334 333 334 334 334 334 332 331 331 331 331 330 330 330 330 331 331 326 323 323 322 323 324 326 331 329 327 327 326 326 326 326 326 327 327 326 328 328 329 328 328 327 327 327 327 327 326 325 321
326 327 328 329 331 332 333 333 334 336 339 340 341 343 344 343 344 343 343 342 342 341 339 339 338 338 337 336 336 335 334 334 334 335 335 334 334 334 334 334 334 333 332 331 331 330 331 331 331 331 330 331 332 325 321 320 318 318 320 325 329 327 325 325 324 324 325 326 326 325 325 326 327 328 328 327 326 326 325 325 324 325 325 326 326
329 330 330 331 331 332 332 333 336 337 339 340 341 342 343 342 342 342 340 341 340 339 338 338 338 337 336 336 335 333 332 333 333 334 333 332 332 333 333 335 335 333 333 332 332 332 331 331 331 331 331 331 332 323 321 319 318 317 320 326 326 325 325 325 323 323 323 324 325 326 326 325 326 325 322 319 320 321 322 322 321 322 323 324 324
332 333 333 334 334 333 334 335 334 335 337 339 340 341 342 339 337 338 337 337 338 337 337 338 338 336 336 336 335 333 332 332 332 332 332 331 331 333 334 335 334 333 333 331 331 331 332 332 331 331 330 330 331 325 318 315 315 315 318 324 324 324 324 322 322 322 324 324 324 324 324 324 324 324 318 313 315 316 320 320 320 320 320 320 320
330 329 330 332 334 335 336 334 333 334 336 338 340 341 340 338 335 334 335 335 336 336 337 338 337 336 336 336 334 333 333 332 331 330 330 332 332 334 334 336 334 334 332 332 331 330 330 331 331 330 330 330 330 326 318 315 314 315 318 325 324 322 322 321 321 322 321 322 323 324 325 325 321 320 311 311 312 317 319 318 318 317 317 317 319
326 326 327 332 332 334 336 336 334 334 334 338 339 339 338 336 334 333 334 333 334 335 336 337 337 336 336 337 335 334 333 331 330 330 330 329 328 330 332 334 334 334 332 331 332 329 329 329 331 330 331 330 329 325 319 318 317 314 319 324 322 321 320 320 319 319 319 320 321 320 319 318 316 315 308 308 310 313 317 317 317 316 316 316 318
335 333 328 333 338 339 335 335 335 336 336 337 338 338 337 336 333 333 333 332 332 333 335 337 337 336 336 336 335 335 334 332 330 330 330 329 330 330 331 332 331 331 330 329 330 328 327 326 328 329 329 329 329 328 328 319 315 312 314 323 321 321 321 321 318 319 320 320 319 319 319 315 311 309 306 305 305 306 316 316 316 316 315 315 317
335 336 339 335 335 334 334 334 334 334 334 335 335 334 333 332 332 332 331 330 331 333 334 335 335 335 335 336 335 332 328 327 328 328 329 330 331 331 331 330 330 328 327 328 327 327 326 325 325 325 325 325 326 326 324 312 309 308 311 316 320 322 321 320 318 320 320 318 318 317 317 314 308 308 304 302 301 304 307 314 316 315 315 313 310
336 335 333 332 331 330 330 330 331 333 333 333 334 332 330 330 330 329 329 330 331 332 333 334 334 334 334 334 332 330 328 327 327 327 326 326 331 332 332 332 329 326 326 327 327 325 324 325 324 324 324 324 324 327 321 311 308 305 307 311 320 322 321 319 316 316 315 316 316 316 318 312 305 304 303 302 301 304 307 314 314 304 303 305 310
331 330 332 331 329 328 329 330 331 332 333 333 332 331 330 329 328 328 330 331 331 332 333 333 333 333 333 332 331 331 330 329 329 329 329 329 330 330 331 330 328 327 327 326 326 325 324 322 321 321 321 321 321 325 317 317 306 304 304 307 311 314 312 319 316 316 316 316 315 316 316 311 305 300 301 302 304 305 309 310 300 301 304 307 311
332 331 330 329 327 327 328 328 329 330 332 333 332 329 329 328 327 330 330 331 332 332 333 333 333 332 331 330 331 332 332 331 332 331 331 330 329 329 330 328 327 326 325 325 324 323 322 320 319 319 318 319 320 321 317 315 312 305 304 303 302 304 308 315 315 314 313 313 315 314 313 305 300 297 299 303 304 305 309 300 300 304 307 310 312
331 330 330 327 326 326 327 327 328 329 331 332 331 330 329 327 328 331 330 330 331 332 332 331 331 331 331 332 332 332 332 332 333 333 331 330 329 329 327 327 327 327 325 323 321 321 320 320 320 319 320 318 318 318 317 315 311 305 301 299 300 302 302 303 312 314 316 314 309 303 300 299 300 299 300 304 307 307 306 305 304 306 309 310 310
329 329 328 326 327 327 326 326 326 328 330 331 331 331 329 328 330 332 331 330 331 331 331 330 331 331 332 333 331 331 331 332 332 332 331 329 328 327 326 325 325 323 322 320 321 320 320 319 319 321 320 318 317 316 315 314 313 311 308 305 306 307 307 307 310 312 307 306 305 304 304 303 304 307 312 313 312 311 308 308 307 307 309 309 308
327 329 330 326 327 327 327 326 325 326 328 329 329 330 330 330 331 331 331 331 331 331 331 331 330 331 331 332 331 329 329 328 327 328 329 329 327 326 324 324 323 321 320 320 320 321 320 319 319 319 317 316 317 315 314 313 314 313 312 312 311 310 309 310 312 310 306 310 312 313 313 310 310 310 310 308 307 308 309 308 308 308 308 308 308
324 326 326 326 326 326 326 325 325 326 328 330 329 329 330 331 331 331 332 331 331 331 329 329 330 330 330 330 329 333 327 320 321 322 324 324 323 323 324 323 322 320 320 320 321 321 320 320 320 318 317 318 317 316 313 312 310 310 309 308 312 310 306 307 306 305 304 309 313 309 308 314 313 310 309 307 307 307 307 306 305 306 306 306 305
323 324 326 326 327 327 326 325 325 325 326 326 326 327 329 329 330 331 331 331 330 331 330 328 329 329 329 330 328 327 322 320 318 317 316 315 317 321 323 322 313 314 318 321 321 321 322 321 320 318 317 316 316 316 316 310 312 306 307 307 307 306 305 305 303 299 306 310 313 312 311 308 308 308 307 304 303 303 305 304 303 303 304 304 304
325 326 326 327 328 327 326 325 324 324 322 321 322 324 327 328 328 328 328 328 329 327 326 326 327 327 327 326 324 322 321 321 321 319 312 309 303 296 298 312 314 308 304 299 305 320 321 319 316 314 314 317 317 317 305 300 297 295 294 296 296 295 297 301 299 298 306 310 309 307 307 307 306 305 304 303 302 302 302 302 302 302 303 303 303
325 325 324 325 326 328 327 324 322 322 321 322 322 323 324 325 326 326 326 326 325 324 324 324 324 323 323 321 321 320 320 319 319 317 315 312 307 304 294 294 299 300 297 295 298 302 307 311 317 311 305 302 302 297 294 294 293 293 292 291 291 291 291 293 295 303 308 308 307 307 305 305 304 304 303 302 303 302 302 301 301 302 301 302 301
Wind_Speed
11 11 11 11 12 10 9 8 8 9 9 9 9 9 10 10 8 9 7 6 6 6 5 6 5 4 3 6 5 5 5 5 5 6 7 7 6 7 7 6 6 5 5 5 4 2 3 3 4 4 3 3 2 3 3 4 3 3 3 3 4 5 5 3 3 3 3 3 4 5 5 3 2 2 1 3 4 2 2 3 4 5 6 6 6
6 7 8 8 10 10 9 8 8 10 8 8 10 10 10 9 10 9 7 7 7 7 7 6 6 6 6 5 4 4 6 6 6 6 7 6 6 6 5 5 6 5 4 4 4 4 4 4 4 4 3 2 3 4 3 4 4 4 3 3 3 4 3 3 2 1 2 2 4 6 3 4 2 2 3 4 3 2 3 4 4 5 5 5 5
7 10 10 10 11 11 10 9 9 11 11 11 11 10 9 9 9 9 8 8 7 7 6 7 6 5 5 4 5 3 1 3 4 5 5 5 5 6 5 6 5 5 5 5 5 5 5 4 3 2 3 4 3 3 3 3 3 4 4 3 3 3 4 4 4 3 2 1 1 1 3 4 4 3 2 2 3 2 2 4 5 6 5 3 3
12 11 12 11 11 10 10 10 10 10 9 9 9 11 9 9 9 9 9 8 7 8 8 8 6 4 3 4 3 3 3 3 3 4 5 4 5 4 4 5 6 6 6 6 5 5 5 4 3 4 5 4 3 3 3 4 4 4 4 4 4 3 2 1 2 2 3 1 2 2 1 1 2 2 3 3 2 2 4 4 4 5 5 4 2
12 11 11 11 11 12 13 12 10 11 11 11 11 10 9 11 11 11 10 9 8 8 9 7 6 5 5 5 4 4 4 3 3 3 5 6 4 6 7 5 5 5 5 6 6 6 5 4 5 5 4 4 4 4 4 5 4 4 4 4 4 3 2 1 1 1 2 4 2 1 1 1 2 2 3 3 3 2 3 4 3 6 6 4 3
14 14 13 12 12 10 10 10 11 11 12 12 12 12 11 11 10 10 8 8 8 9 9 8 8 8 7 6 5 4 4 5 7 8 8 8 8 7 6 7 6 5 5 6 6 6 6 7 6 5 5 5 5 6 6 5 6 5 5 5 4 3 2 0 2 2 2 2 4 2 2 1 1 1 1 1 4 1 2 2 2 5 4 4 3
12 12 12 12 13 12 12 12 13 13 13 11 10 11 12 11 11 11 10 8 8 9 9 8 8 8 10 10 9 9 8 7 6 6 9 8 6 8 7 6 6 6 5 5 6 6 6 7 8 6 5 5 6 6 5 5 4 3 3 4 3 4 4 2 1 2 2 1 1 2 3 2 1 2 1 1 3 4 3 3 2 4 4 3 4
13 14 14 14 15 15 16 15 13 14 12 10 10 10 12 11 11 11 8 8 8 8 9 9 9 9 9 9 8 8 8 8 8 7 6 6 6 7 6 6 6 5 5 6 7 8 8 6 6 5 5 4 5 5 5 3 2 1 3 3 3 4 5 4 2 1 2 1 0 1 0 1 2 2 2 2 3 1 5 2 1 5 4 1 2
15 13 15 16 17 17 15 14 15 12 11 11 11 11 11 11 11 10 10 9 8 10 10 10 9 10 10 8 8 6 6 6 4 4 6 6 7 5 5 6 6 6 6 7 7 7 6 6 5 5 5 5 4 3 3 3 4 4 3 3 3 4 4 3 3 2 3 2 2 1 2 2 2 1 2 1 2 1 3 3 5 2 3 2 3
13 15 15 14 14 14 14 13 12 12 11 11 11 10 10 10 11 10 11 9 9 10 10 11 11 9 9 9 10 8 5 4 4 6 6 6 7 6 6 6 5 5 5 6 6 6 6 5 5 6 5 4 3 4 4 4 4 4 4 4 3 3 3 4 4 3 3 2 2 3 3 2 3 3 2 2 2 2 3 3 3 5 5 3 2
13 14 15 15 14 12 10 13 14 11 10 11 11 11 10 11 11 12 12 9 9 11 11 12 10 10 10 10 11 10 8 7 6 5 5 6 7 6 7 6 5 6 4 4 5 6 6 5 5 5 5 4 4 4 5 5 4 4 4 3 4 4 2 3 3 3 2 3 3 4 4 5 4 4 5 4 3 3 3 5 5 3 4 5 3
14 14 14 13 10 10 11 13 13 13 12 11 11 11 11 11 11 13 11 11 10 11 11 11 11 11 11 12 12 10 10 8 10 10 9 9 8 8 6 5 5 4 4 5 5 5 6 5 5 5 5 4 5 4 4 4 4 4 3 3 4 3 2 3 3 3 5 4 4 4 3 3 3 3 4 5 6 5 5 3 3 3 3 3 3
15 14 13 12 13 14 14 14 13 13 14 14 13 12 11 12 13 14 13 12 12 11 13 12 12 12 11 11 11 9 10 11 11 10 9 9 8 7 7 7 5 5 5 6 6 7 6 6 5 5 5 5 5 4 5 4 4 4 4 4 4 4 4 4 4 5 5 5 5 5 4 5 5 6 4 5 6 5 6 3 3 2 3 4 2
16 15 15 14 15 14 15 15 15 14 15 14 14 13 12 12 13 15 15 13 12 12 13 13 13 12 11 11 10 9 10 10 10 10 9 9 8 9 8 8 7 7 7 7 7 7 6 7 7 6 6 6 5 6 5 5 4 4 4 4 4 4 3 5 5 5 4 5 3 4 5 7 6 6 6 5 6 6 4 4 2 2 3 3 3
15 15 16 16 16 16 16 16 15 15 15 14 13 14 13 14 14 16 15 14 14 14 12 13 11 11 10 9 9 8 9 9 9 8 10 9 7 8 7 7 7 7 8 7 7 8 8 6 6 7 6 6 5 5 5 5 4 4 4 4 3 3 4 4 4 4 4 6 6 6 4 5 6 6 6 7 6 6 5 4 4 4 2 2 3
15 15 15 16 16 16 14 14 14 13 14 13 14 13 13 15 16 17 18 15 14 13 12 12 11 9 9 10 9 9 8 8 7 6 7 8 9 8 8 8 7 7 6 6 8 8 7 7 6 7 7 7 6 6 5 5 4 4 3 3 3 3 4 5 5 5 6 6 6 5 3 5 5 6 6 6 5 4 4 3 3 3 4 6 2
15 16 16 16 15 15 15 15 14 14 13 15 16 16 18 17 15 16 16 13 13 13 13 11 11 11 11 10 9 9 9 10 9 9 9 7 7 8 8 9 8 7 7 6 8 7 7 7 7 7 7 6 6 5 5 5 4 3 3 3 4 3 4 5 4 5 6 5 5 6 5 5 4 4 4 4 4 3 3 4 5 6 5 3 3
18 17 17 18 18 19 18 16 17 17 18 18 18 17 16 15 15 16 14 15 14 13 13 12 12 11 10 9 9 11 11 10 9 10 8 8 7 7 7 7 8 8 7 7 7 8 7 7 7 7 6 5 5 5 4 4 3 3 4 4 4 3 3 2 3 4 5 4 4 4 4 5 3 3 4 4 4 4 3 4 4 3 4 6 4
13 15 15 15 15 15 15 16 17 17 17 17 17 15 12 12 13 13 15 15 12 10 9 8 9 8 9 12 13 11 9 9 9 9 9 9 10 8 9 9 8 7 7 7 7 7 7 7 6 6 5 5 5 5 4 4 4 4 4 4 4 3 3 4 3 3 4 4 5 6 4 5 4 5 5 4 3 4 4 4 4 4 5 6 6
16 15 16 16 17 18 19 19 18 18 17 17 17 14 16 15 14 13 12 8 8 11 11 11 11 11 11 10 11 12 11 11 10 10 9 10 10 10 9 9 9 8 8 8 7 7 7 6 5 5 5 5 5 5 4 5 4 4 4 4 4 2 3 4 5 4 4 4 5 6 6 5 4 4 4 5 5 5 5 4 4 5 6 7 5
15 16 15 16 16 17 17 17 17 17 16 14 13 15 17 15 14 14 13 14 13 13 12 12 10 11 12 13 12 11 11 10 11 11 11 10 9 9 9 9 7 8 8 7 7 7 7 6 6 5 5 6 6 5 5 4 4 5 4 5 4 3 4 5 5 6 4 4 5 6 7 6 4 6 5 5 5 6 5 5 5 5 4 5 6
15 16 15 15 15 16 16 14 13 12 13 15 15 14 15 14 15 15 14 13 15 13 14 13 12 11 12 12 11 11 13 11 12 11 10 9 9 9 9 8 9 8 8 8 7 6 6 6 6 6 6 6 6 6 5 4 5 5 5 3 4 4 5 6 4 5 5 4 4 5 7 6 5 7 6 6 6 5 6 5 6 6 6 6 6
15 15 14 14 15 16 16 17 17 18 18 18 16 16 16 17 17 15 16 17 16 16 13 11 11 11 13 13 12 12 11 12 14 12 12 11 10 10 9 9 7 7 7 7 7 7 6 6 6 6 6 6 6 6 5 5 5 5 5 5 4 5 6 6 6 6 6 4 4 5 7 5 3 5 6 6 5 6 5 6 7 5 7 7 6
11 11 12 12 13 13 12 14 15 15 15 16 16 15 15 15 16 15 17 18 15 13 12 12 12 13 13 14 14 12 13 13 14 12 13 12 11 10 8 8 9 7 8 7 7 7 7 7 7 6 6 7 6 6 5 5 5 5 5 6 6 5 6 6 6 6 6 5 6 6 7 6 5 6 6 5 5 5 5 6 7 6 6 7 6
10 12 12 10 11 13 15 15 15 15 15 15 15 16 16 16 14 15 15 16 14 11 12 13 13 14 13 13 14 13 14 15 14 11 12 10 11 10 8 9 9 9 9 8 7 6 7 7 7 7 7 7 7 6 6 5 5 5 6 6 6 6 6 6 6 7 5 5 5 7 7 5 5 6 5 6 5 7 7 6 7 6 6 7 5
12 11 10 14 14 14 13 13 13 14 15 15 15 15 15 14 14 14 14 12 13 11 12 12 12 13 13 15 15 15 16 15 13 11 12 9 8 7 7 7 9 10 8 8 8 7 7 8 7 7 7 7 7 6 6 6 6 5 5 5 6 6 7 7 6 6 5 5 6 7 6 5 5 6 6 6 5 8 6 6 8 7 7 6 6
14 14 13 9 9 14 15 14 14 15 14 14 14 14 13 13 14 14 12 11 11 11 11 13 13 15 14 16 16 16 12 8 5 4 4 0 2 2 5 9 8 9 9 8 7 8 7 8 8 7 7 7 7 7 6 7 7 6 6 6 6 7 7 6 6 6 5 5 6 6 6 5 6 6 7 7 6 6 6 8 7 7 7 5 6
6 7 10 13 14 12 13 14 13 13 12 12 12 12 13 13 14 12 11 10 10 12 13 13 14 14 15 17 16 13 11 10 10 8 7 7 7 7 8 6 7 9 8 9 9 9 8 7 8 8 8 7 7 7 7 7 7 7 6 7 7 7 7 6 6 5 5 5 6 6 7 6 7 7 7 7 6 7 5 6 6 5 6 5 6
11 11 10 11 12 13 13 12 13 12 12 13 11 11 10 10 11 10 11 13 13 13 14 14 14 15 16 15 11 7 10 11 13 12 10 10 10 10 7 5 6 7 7 8 8 9 8 8 7 7 8 7 7 7 7 7 7 8 7 7 7 7 7 7 6 6 5 6 6 6 6 6 7 9 11 9 8 7 5 6 6 5 6 6 9
14 12 12 12 13 11 11 10 9 11 12 11 10 10 11 11 11 10 10 11 11 14 14 14 14 14 10 3 7 9 8 9 12 13 13 12 11 10 8 7 8 9 8 7 7 8 8 9 9 8 8 7 7 6 8 13 11 7 7 6 6 6 6 7 6 6 6 5 6 5 6 10 10 10 10 11 12 12 11 8 7 5 6 6 6
12 11 11 10 8 7 6 8 9 11 12 11 10 9 8 9 9 10 12 12 12 11 10 11 12 10 8 10 14 16 16 17 18 16 14 11 9 6 5 7 8 8 8 8 8 8 8 8 9 8 8 7 7 7 13 12 12 12 8 6 6 7 7 7 7 7 7 6 5 5 5 6 6 7 7 10 11 11 11 12 14 14 11 8 7
12 11 9 8 8 9 10 12 12 10 9 9 9 9 8 10 9 10 10 9 9 10 12 12 11 7 8 12 14 18 20 20 17 12 9 11 9 8 7 5 6 7 8 7 8 9 9 8 7 8 8 8 7 10 13 12 11 11 9 7 6 6 7 7 7 7 7 5 5 4 4 3 4 5 5 6 7 9 9 10 11 12 12 14 13
11 10 11 11 12 11 11 9 6 8 8 9 8 7 10 10 10 8 7 9 11 11 10 8 7 9 10 12 12 15 17 17 16 13 12 9 9 9 8 9 11 10 8 8 9 8 8 7 8 8 9 8 7 10 12 12 12 12 12 10 7 7 7 7 6 6 6 5 4 4 5 5 4 7 6 5 5 6 8 9 10 10 10 11 12
7 8 8 7 6 6 6 7 7 8 10 8 9 11 10 8 7 7 10 9 10 8 7 8 8 9 11 12 13 13 14 11 10 9 7 10 10 9 10 12 11 9 7 7 7 8 8 8 8 8 8 7 7 9 12 13 12 12 12 9 7 7 6 6 7 5 4 5 5 5 5 6 5 4 4 4 4 5 5 6 5 4 6 6 8
8 8 8 8 8 6 6 7 9 10 7 7 8 9 7 7 9 10 9 9 9 8 8 9 10 10 10 11 11 7 6 9 9 9 9 8 10 7 7 8 6 6 8 8 8 8 8 8 8 7 7 8 8 11 10 9 8 10 11 8 6 6 6 5 2 4 6 5 4 4 5 5 5 5 4 3 6 7 8 8 8 8 8 7 6
10 10 8 9 10 12 12 12 8 6 7 9 9 7 8 8 8 9 8 8 8 8 8 9 10 11 12 11 10 11 14 14 14 16 17 17 15 14 11 6 4 6 6 6 6 7 9 9 8 8 8 8 7 7 8 10 11 10 8 5 6 7 6 6 5 5 5 5 4 4 5 6 5 5 5 6 5 5 5 6 7 7 7 7 6
9 11 12 11 10 10 10 5 5 8 8 7 5 7 7 7 8 7 8 8 9 10 10 11 12 12 12 12 13 14 14 14 13 17 15 11 9 6 4 3 5 6 6 7 8 8 8 7 7 7 8 7 6 7 8 7 7 8 5 5 6 5 5 4 4 4 3 3 3 4 4 3 3 5 4 5 4 3 3 3 5 6 6 7 8
5 3 3 3 3 2 2 5 5 6 6 5 6 7 7 8 8 9 9 9 10 12 11 11 10 11 11 11 12 14 15 17 16 15 10 6 5 3 2 2 6 6 6 7 4 4 4 4 6 7 7 7 7 3 3 6 7 6 6 6 5 4 4 4 3 2 2 3 3 5 4 3 3 4 3 4 5 4 2 3 4 6 8 8 8
6 4 5 4 4 5 4 3 3 4 6 6 7 8 8 8 8 9 9 9 7 4 6 8 9 9 9 10 10 10 11 12 12 10 11 12 10 6 8 5 6 5 4 3 4 5 4 5 5 6 8 9 6 7 8 5 2 4 6 5 4 4 4 4 2 2 2 2 2 1 1 1 3 1 2 3 3 2 2 3 3 5 8 9 8
7 6 5 6 5 5 5 4 2 2 2 3 6 7 5 3 4 5 6 5 5 6 7 7 7 8 8 8 7 8 5 4 3 5 6 8 9 11 10 4 2 2 3 4 5 6 6 4 2 1 1 2 4 6 4 2 3 5 9 5 4 5 6 4 2 2 2 2 1 1 1 3 3 1 3 3 2 2 0 1 2 4 7 10 6
8 7 6 7 6 7 7 5 4 3 5 4 5 6 6 6 7 6 6 5 7 7 8 8 8 8 8 8 7 9 11 11 10 10 10 9 7 7 4 4 4 4 5 4 5 6 6 6 4 3 2 5 5 7 5 3 5 7 8 8 5 6 4 2 2 2 2 2 2 1 1 3 3 3 4 2 1 1 2 1 2 4 5 7 9
10 11 10 8 8 9 9 8 5 6 6 6 6 7 7 8 8 7 6 6 8 9 9 9 10 10 9 9 9 9 10 10 9 7 7 6 1 0 2 5 5 6 7 7 7 6 8 6 5 6 4 4 4 8 6 2 4 6 7 8 4 3 2 3 2 2 2 3 3 1 1 2 1 2 3 3 1 1 2 3 3 5 8 8 7
9 10 7 7 7 6 6 6 5 5 5 5 8 9 7 7 8 7 7 9 9 10 10 11 11 11 11 11 10 11 9 7 7 6 4 3 3 4 4 5 6 5 7 8 9 7 3 4 5 2 2 3 3 2 3 2 5 5 5 4 4 4 5 2 3 3 3 3 2 1 1 3 2 3 3 2 2 1 2 2 5 7 7 9 8
8 8 8 8 7 6 7 6 5 4 4 6 9 9 8 9 9 7 8 9 9 10 10 11 11 11 12 11 10 10 9 7 7 7 7 7 7 7 7 7 7 6 6 5 3 3 4 6 7 5 3 2 2 2 2 3 3 4 5 6 6 6 6 2 2 2 2 2 2 1 1 1 3 6 4 1 1 2 2 4 6 6 7 6 5
10 10 8 8 7 7 7 8 7 6 4 5 7 10 10 10 8 8 10 10 10 10 11 11 11 11 11 10 9 9 9 8 9 10 9 9 10 8 7 5 6 8 7 7 6 7 8 6 3 6 6 4 4 4 2 3 5 7 7 6 6 6 4 4 3 3 3 2 1 2 4 4 5 5 3 2 2 2 2 4 5 6 5 3 4
9 8 7 6 7 7 8 8 8 7 4 3 5 9 11 9 9 8 9 10 11 11 11 11 10 10 10 9 9 6 5 5 7 7 6 5 5 5 4 3 3 4 5 6 6 5 4 5 7 5 5 5 5 4 4 4 5 5 4 5 6 5 4 4 4 2 2 2 4 3 3 6 7 5 2 1 0 1 2 4 4 5 3 3 4
6 2 4 6 7 7 7 7 7 5 4 4 4 3 7 8 9 8 9 10 10 10 10 10 10 9 9 8 9 7 5 5 4 4 4 5 6 6 5 6 7 7 5 5 5 5 6 5 6 5 4 4 5 4 3 3 3 3 3 4 4 4 4 3 2 1 2 0 3 5 4 5 6 6 5 3 2 1 1 2 3 3 3 4 4
1 3 6 5 6 8 8 8 6 3 4 4 3 5 7 8 8 8 8 10 10 9 10 9 9 9 8 8 8 10 7 4 5 5 6 6 6 7 8 7 8 8 7 7 6 6 6 6 6 5 5 3 3 3 3 4 4 4 3 3 4 3 2 1 1 1 0 2 4 5 4 4 4 3 2 2 2 1 2 2 3 3 3 4 5
5 4 2 9 8 8 9 10 8 6 6 7 6 6 7 9 10 11 10 10 9 9 7 9 9 9 8 8 7 6 7 7 6 6 5 3 2 0 1 3 2 2 4 6 7 7 7 6 6 8 7 4 2 4 6 7 6 6 7 6 4 3 3 2 2 2 2 3 5 6 5 3 2 1 1 1 1 1 1 2 3 3 3 3 3
4 1 5 2 5 7 8 7 8 7 5 7 7 8 8 8 10 11 11 11 10 9 9 9 8 8 8 7 7 7 8 8 8 7 6 5 10 10 5 1 1 5 6 4 3 6 5 6 5 2 2 4 5 4 8 12 11 9 7 6 6 5 4 3 4 5 5 5 4 3 2 2 2 1 1 0 1 1 2 2 2 2 3 3 4
4 2 4 5 2 2 3 6 6 6 7 7 8 8 9 10 10 11 12 11 11 10 8 9 9 9 10 9 9 9 8 7 7 7 6 6 3 5 10 10 7 5 5 6 4 3 7 6 7 5 4 7 8 10 12 11 11 9 9 9 7 6 6 5 6 6 3 3 3 3 2 2 2 2 1 0 1 2 2 2 2 2 2 3 4
Wind_Direction
203 199 198 196 198 196 193 190 192 189 189 186 184 188 190 190 187 200 199 180 174 175 172 164 157 142 143 184 183 183 184 186 183 182 195 208 196 186 177 181 185 182 181 166 173 176 157 174 179 177 174 174 195 225 230 233 227 227 231 242 252 292 294 255 250 259 288 296 299 295 300 301 281 81 314 32 37 29 42 52 40 28 13 9 8
197 201 208 202 199 196 191 191 187 188 197 189 190 191 192 190 192 200 195 187 187 184 180 176 178 184 171 183 167 163 175 176 185 189 189 193 192 188 183 183 187 187 181 171 165 174 183 189 197 195 185 206 221 233 226 235 243 222 225 253 230 258 278 300 274 189 261 294 327 330 328 325 57 115 84 47 43 48 50 58 50 43 27 4 359
203 208 202 203 202 197 191 192 193 195 190 192 194 190 192 194 199 199 199 193 192 183 175 189 191 183 178 170 171 152 225 179 178 181 179 188 192 187 185 183 179 180 180 179 181 186 189 187 190 191 208 209 217 237 253 255 248 251 246 252 274 239 276 275 268 201 276 253 308 323 7 2 339 5 348 51 38 73 55 51 38 33 28 21 3
207 205 204 202 200 197 194 194 195 192 193 194 192 193 193 199 200 200 202 197 187 187 188 196 180 153 109 114 120 110 177 157 158 163 182 177 199 197 202 182 183 183 183 190 187 184 183 178 183 207 216 205 205 223 234 243 242 248 245 242 240 295 293 323 356 248 235 292 360 41 10 68 352 330 332 303 336 70 47 48 40 22 11 17 23
207 207 208 202 200 200 196 197 191 192 193 192 191 192 195 199 201 201 201 194 186 188 190 169 137 118 105 90 101 84 67 115 144 178 197 202 203 208 214 186 189 190 185 194 190 185 185 181 201 210 208 199 207 220 227 234 237 237 237 237 231 227 265 277 320 31 207 216 220 166 67 85 204 276 321 287 333 21 14 28 41 18 8 5 10
205 205 205 205 205 202 200 197 195 197 197 196 192 193 193 199 201 203 202 190 189 190 183 163 167 159 153 151 158 167 163 168 183 187 194 199 208 206 207 199 186 187 187 192 194 185 193 199 207 208 210 215 216 222 226 232 238 234 233 225 224 209 204 9 303 325 360 260 196 192 161 162 205 205 337 323 321 347 318 8 8 19 1 358 4
212 210 203 201 204 201 201 200 199 199 202 193 190 194 196 197 198 200 199 192 190 189 179 171 169 173 177 181 181 185 183 203 193 191 187 197 196 198 205 201 193 182 185 190 197 197 199 206 209 206 206 203 210 209 211 217 221 215 168 174 166 152 154 193 223 303 330 11 143 224 222 230 175 153 158 197 351 316 331 331 331 3 357 357 9
205 208 206 205 200 200 201 201 198 202 197 187 191 192 195 199 197 200 197 192 192 185 181 179 178 182 185 191 192 192 193 196 189 184 189 181 182 196 192 193 187 182 180 196 198 202 203 199 192 184 176 190 192 197 199 192 161 146 149 150 153 164 171 173 208 215 143 223 301 70 60 120 125 121 113 139 148 290 309 311 256 338 340 357 4
204 204 206 205 204 203 200 199 203 199 191 190 191 191 195 200 201 199 196 193 192 186 183 185 186 184 187 189 197 208 200 195 172 158 161 167 171 179 183 188 189 194 190 185 191 186 182 164 162 159 161 165 175 158 164 154 170 158 162 163 168 171 182 173 160 189 181 207 120 64 79 90 111 111 92 130 145 165 272 296 309 355 324 303 334
205 207 208 209 210 207 203 200 197 200 195 193 192 189 193 195 202 199 201 195 191 189 186 187 188 184 186 190 196 196 183 154 156 164 160 159 161 168 169 166 172 171 172 167 161 169 155 150 159 161 160 162 157 165 150 149 150 168 182 173 165 149 195 180 180 180 181 160 177 151 142 136 135 169 200 188 216 225 271 277 282 309 324 303 322
201 205 207 209 207 203 194 199 202 197 197 194 192 192 192 195 200 202 202 195 191 191 187 189 188 185 190 190 194 189 180 163 156 167 149 153 159 167 167 170 164 163 157 164 161 161 158 163 161 165 164 168 159 162 173 176 187 185 181 164 155 165 177 197 198 182 179 189 199 186 182 173 175 188 197 195 198 210 240 271 277 246 263 306 276
200 201 205 207 199 198 194 203 199 198 196 196 196 193 193 197 198 203 201 195 193 191 189 189 187 190 194 190 191 188 174 171 173 173 176 171 171 170 173 154 160 155 165 155 171 167 165 170 169 156 166 166 181 194 190 190 183 175 164 174 187 180 170 187 205 193 197 194 200 203 201 199 211 208 188 180 195 209 207 243 273 299 288 230 279
194 198 199 198 197 194 197 202 198 198 200 197 195 193 195 199 199 201 204 196 194 189 191 189 189 192 191 191 191 181 180 177 177 174 176 172 173 169 163 173 156 158 179 173 180 176 171 163 168 167 177 192 196 193 214 200 183 182 178 186 188 187 192 190 186 211 190 185 186 196 197 200 214 221 204 186 203 203 205 218 233 224 265 298 280
196 195 196 195 196 196 197 197 198 200 201 198 196 194 196 200 202 204 207 195 193 192 192 189 193 192 189 188 184 177 182 180 179 174 179 177 173 172 173 174 172 180 177 185 183 178 177 182 177 182 186 189 189 201 207 204 189 192 190 190 205 219 172 196 207 211 206 216 185 182 202 209 219 216 211 197 189 179 198 212 197 213 224 275 302
196 196 196 195 195 195 196 197 198 199 200 198 197 199 196 201 201 205 207 200 194 194 190 191 192 191 189 187 179 176 178 180 180 177 173 173 178 168 175 171 174 184 180 189 181 177 183 185 189 183 189 191 193 205 212 203 194 186 185 193 197 197 203 197 222 212 217 216 216 214 201 214 217 211 201 206 195 193 185 172 169 250 274 238 273
195 198 199 197 195 195 197 198 199 200 198 200 203 201 202 205 204 205 207 201 195 192 193 190 190 186 184 181 181 178 177 173 170 174 177 175 172 171 173 175 185 179 192 176 187 179 182 190 198 197 192 191 194 201 205 208 195 190 196 190 213 178 186 202 213 202 222 219 216 220 217 225 220 211 204 205 198 188 182 153 159 164 231 285 232
195 197 197 196 194 196 196 196 197 197 196 201 204 203 205 205 204 207 209 201 194 195 192 188 183 182 186 180 174 176 174 171 173 174 176 180 172 175 172 182 180 179 179 186 179 187 185 189 196 205 198 195 197 206 207 210 198 203 218 205 242 199 189 208 191 202 222 222 222 200 214 227 227 216 210 208 196 184 185 176 181 195 172 229 279
196 196 196 194 193 193 194 196 195 195 198 202 206 206 209 207 207 208 207 204 200 193 191 188 184 183 175 179 182 182 179 176 169 171 171 168 177 176 172 167 183 182 176 179 179 183 193 196 198 203 203 195 205 211 214 222 202 220 221 226 229 210 216 229 214 207 231 221 229 229 222 237 218 203 214 190 191 192 189 201 200 200 173 211 226
191 196 197 196 195 196 196 198 199 200 201 204 208 207 209 212 214 211 210 211 202 193 191 191 185 177 179 185 182 184 181 172 172 168 166 172 174 176 173 179 178 178 177 175 179 188 190 198 197 202 199 206 207 216 214 221 204 223 228 231 234 202 217 244 240 214 239 223 229 237 227 241 207 205 203 192 177 191 206 199 203 195 216 219 228
192 194 197 195 195 194 195 196 196 199 202 206 204 201 207 211 210 211 212 201 186 190 192 195 190 185 189 184 186 182 175 171 171 167 174 177 175 173 173 173 184 178 181 180 182 188 191 192 195 199 204 208 210 219 206 213 193 218 226 229 245 186 220 242 251 218 227 226 231 240 244 235 210 206 207 203 204 202 201 202 195 202 220 225 218
190 195 195 193 195 197 200 201 202 201 205 205 202 203 208 206 207 207 202 200 198 196 192 199 186 193 187 187 185 179 175 170 170 174 173 178 172 172 179 184 177 184 175 178 185 191 189 189 189 198 202 206 210 222 211 204 199 222 228 232 243 209 229 243 237 253 226 225 227 241 254 244 192 212 216 213 217 210 202 211 202 208 222 213 217
193 195 192 193 195 197 199 200 201 200 204 204 204 206 208 206 207 205 204 203 202 196 197 195 191 190 187 185 186 183 178 174 170 174 176 175 171 176 186 184 184 183 170 176 187 192 190 185 186 203 207 208 211 220 216 190 206 218 236 200 233 226 231 244 241 249 244 216 217 236 253 249 199 220 212 217 217 208 208 208 215 209 221 227 203
193 192 192 193 193 193 194 194 195 198 202 203 204 205 206 206 206 204 202 206 203 201 196 189 188 188 189 187 183 187 182 178 174 174 174 174 176 182 186 182 183 177 175 176 186 189 191 189 198 202 204 208 214 221 213 190 208 214 231 236 220 223 225 238 236 243 245 223 222 233 248 246 207 216 220 225 216 222 212 218 226 215 229 230 219
196 192 192 192 190 192 193 198 201 205 206 205 206 207 208 209 208 205 206 207 203 198 190 188 190 193 190 187 189 184 180 183 185 180 175 172 179 182 181 180 184 178 179 184 185 186 186 192 201 203 202 214 218 223 216 204 211 210 219 236 238 222 225 230 234 239 241 216 225 233 245 237 213 219 226 225 224 221 217 219 229 229 221 238 229
187 190 192 186 186 192 198 200 201 203 205 206 206 208 209 210 207 208 211 208 202 195 189 192 192 193 192 192 193 188 185 186 187 176 172 180 180 181 174 181 181 186 186 180 186 179 187 192 199 203 207 212 219 215 220 221 218 209 215 229 241 242 234 232 231 233 233 225 224 229 244 222 207 222 232 229 222 220 223 221 231 233 230 236 238
191 189 183 191 193 195 200 201 203 205 206 207 208 210 211 211 211 210 212 203 201 193 194 192 193 194 195 196 196 194 192 188 184 174 176 182 183 171 167 192 190 187 186 186 185 185 189 196 201 206 207 216 219 217 220 230 230 218 216 223 233 235 237 235 234 235 235 228 237 242 247 228 211 215 234 231 224 229 224 226 231 237 235 233 240
192 191 194 186 188 199 201 201 204 205 207 209 209 209 210 209 212 210 208 202 198 194 195 196 196 199 200 201 198 195 186 173 120 58 86 88 309 130 186 206 200 191 182 181 191 193 200 196 204 203 208 213 218 216 220 227 232 226 219 221 229 231 236 233 236 237 236 230 233 241 246 231 226 226 235 239 233 229 222 228 227 233 240 233 239
203 197 188 193 199 199 200 203 204 208 210 213 212 211 210 209 212 207 201 195 192 196 198 198 197 202 205 205 202 185 154 124 115 142 188 167 178 187 200 214 214 198 188 187 188 198 201 200 203 203 210 211 215 217 221 225 227 222 213 219 223 227 228 231 235 235 231 231 230 235 238 234 228 228 228 237 231 240 230 238 235 232 241 238 241
203 203 194 196 198 201 201 201 204 204 206 209 210 211 209 212 211 202 198 200 196 198 199 199 200 205 210 209 195 137 116 145 155 155 165 182 187 193 192 195 223 218 199 195 195 197 198 203 207 204 210 211 210 218 219 218 218 218 211 219 220 220 223 226 232 233 228 227 232 233 238 241 235 237 236 236 238 234 232 242 248 227 238 237 253
204 198 200 202 204 198 201 199 199 200 206 206 206 207 207 208 208 200 201 202 192 202 201 200 204 209 208 169 74 80 112 166 170 169 180 183 193 192 176 189 211 217 205 197 198 198 199 203 203 207 210 210 213 216 222 219 216 217 214 219 220 217 216 219 225 237 235 224 228 230 239 241 244 250 252 250 247 245 239 236 246 236 230 230 238
202 201 202 205 200 194 185 190 199 201 204 201 204 204 203 208 202 199 202 201 199 204 203 203 208 202 175 125 122 136 170 180 190 188 173 167 194 193 194 204 205 210 206 202 197 199 204 205 204 202 207 210 214 217 221 223 224 225 225 224 221 223 210 215 217 218 238 231 220 227 239 252 256 260 258 256 255 250 246 238 239 242 241 231 243
199 200 195 192 190 187 188 197 199 197 195 198 199 198 197 209 199 202 200 192 197 202 205 204 202 178 144 145 155 167 180 186 185 174 158 168 176 161 183 204 225 222 214 203 203 205 205 205 205 207 210 210 215 223 222 225 228 231 228 229 224 224 209 212 213 214 226 229 238 243 243 241 250 247 253 265 266 262 254 252 249 246 245 240 235
194 192 193 194 192 193 197 196 183 189 193 202 189 184 206 203 196 193 173 186 197 203 201 195 175 165 162 164 167 178 187 189 176 164 173 172 183 178 163 201 215 220 209 203 211 203 208 206 204 209 214 214 219 226 224 225 226 227 224 219 228 218 215 219 216 220 216 218 221 240 271 266 254 250 256 259 266 277 271 263 260 262 258 250 244
190 191 189 188 183 186 187 186 190 195 200 189 184 199 207 193 176 164 181 190 192 196 184 175 164 168 167 173 182 188 196 181 147 140 175 184 184 194 204 212 203 203 202 217 213 210 212 209 210 211 215 214 221 229 224 226 229 232 233 223 229 209 198 210 212 207 231 227 215 215 238 265 264 262 258 263 270 267 275 285 283 271 272 262 248
171 173 179 179 176 166 176 192 204 202 188 173 193 201 185 169 169 176 183 179 184 176 164 161 166 170 172 178 182 172 89 89 133 149 195 202 184 176 204 231 213 183 206 216 211 215 218 215 213 207 210 220 228 228 228 236 244 240 238 225 221 201 211 216 137 208 230 227 218 217 227 247 265 275 271 290 293 294 296 296 297 295 295 293 290
182 172 174 171 180 186 187 201 202 177 183 189 197 180 179 181 165 172 172 175 170 168 164 163 173 178 180 175 156 138 149 167 164 174 192 190 185 186 180 183 183 209 215 219 228 222 223 218 208 201 206 225 231 210 207 218 226 234 233 222 217 218 214 206 207 200 219 230 218 216 229 245 259 272 303 330 327 310 296 298 298 300 305 306 305
175 178 188 190 184 185 192 169 162 183 179 192 166 166 171 150 158 163 161 165 168 172 174 176 181 181 179 173 166 164 162 163 178 191 195 187 179 147 145 178 193 209 218 213 221 220 225 219 204 204 209 226 245 225 222 234 238 230 200 221 216 216 220 216 224 206 210 214 222 222 228 247 261 277 341 10 352 331 316 312 310 310 307 308 306
125 97 109 140 143 121 127 171 160 172 180 160 164 163 162 162 161 162 166 174 180 189 181 179 180 179 178 171 170 171 172 178 184 194 176 128 84 28 288 214 226 225 224 228 224 244 252 231 208 199 192 203 230 229 198 219 226 228 212 220 205 208 225 228 229 173 210 217 222 232 241 255 278 285 41 14 345 323 321 320 315 310 309 307 308
116 119 88 99 131 146 143 123 124 176 203 180 173 164 165 173 169 167 171 178 185 129 137 170 174 174 170 167 168 168 174 172 173 172 155 140 153 186 237 225 222 220 215 143 154 181 203 218 218 187 187 199 217 237 244 272 263 205 195 202 191 198 220 229 150 223 210 212 228 228 284 211 265 298 64 300 302 313 326 318 309 306 304 303 304
72 70 127 131 129 117 115 132 166 301 335 205 172 167 160 136 127 126 136 139 126 128 136 140 145 149 149 142 142 141 111 88 60 52 72 125 162 183 224 201 188 123 109 107 150 174 177 181 221 273 313 267 256 256 268 257 201 193 193 179 180 188 221 212 164 192 226 221 243 287 225 144 156 212 271 266 282 269 211 252 284 299 301 295 318
66 69 90 96 88 78 67 58 25 40 77 65 75 83 94 102 110 113 118 111 120 125 127 127 124 125 123 125 128 133 125 125 138 157 176 179 171 174 158 143 103 108 124 163 182 179 168 177 147 139 220 256 265 297 297 183 187 175 175 179 177 198 194 163 177 194 206 245 241 230 269 126 158 227 250 278 202 221 258 241 279 285 287 305 316
49 46 44 50 47 47 47 39 35 80 97 108 105 95 99 114 116 123 130 123 120 122 124 123 122 121 120 122 124 122 125 143 156 155 172 199 266 324 169 145 147 155 176 193 197 183 200 186 169 200 211 234 273 266 226 203 142 146 168 189 176 181 140 144 148 212 216 235 241 219 259 136 177 250 229 179 138 158 258 299 320 310 300 299 301
29 31 35 70 68 59 61 56 49 72 105 118 104 100 97 99 108 130 134 128 126 127 128 128 127 127 130 135 136 134 136 139 144 154 170 214 192 173 156 169 178 189 193 197 212 205 142 145 209 271 317 281 220 246 241 178 123 126 150 146 114 123 129 113 161 210 215 235 238 218 259 125 205 195 195 166 119 45 271 326 311 303 302 304 303
59 57 29 40 57 52 55 49 41 45 81 103 112 111 113 109 127 149 131 128 128 129 128 131 135 138 140 143 145 144 143 146 157 175 192 196 186 191 188 181 172 175 224 228 218 150 163 203 216 227 222 216 200 223 188 115 134 146 156 123 118 134 146 149 156 206 197 232 242 245 258 254 212 176 175 164 29 357 344 302 303 312 317 320 324
59 52 51 56 59 56 59 50 36 41 56 95 116 121 123 129 147 142 140 132 133 134 137 140 146 151 153 150 145 148 154 166 177 177 178 180 191 183 179 181 181 180 181 198 206 195 206 209 204 213 208 198 204 201 167 151 162 158 151 142 141 142 151 136 168 214 217 217 278 279 261 240 181 158 159 232 222 200 298 330 331 332 342 341 334
48 50 56 81 81 70 63 58 43 28 35 70 113 130 133 151 155 145 139 139 138 142 146 152 154 162 163 153 151 144 137 141 151 154 147 132 130 152 174 164 186 190 188 203 214 203 204 201 213 207 191 194 188 175 172 164 160 141 132 141 138 135 143 186 185 122 48 318 271 243 176 146 140 152 159 110 55 358 340 336 340 353 356 342 336
64 94 113 94 100 88 71 66 55 32 65 71 86 82 133 145 151 145 140 145 148 147 150 155 165 168 165 163 165 163 149 119 110 121 137 155 156 172 158 166 184 186 190 211 214 204 208 208 216 201 174 180 189 188 171 151 140 125 129 137 134 124 130 126 127 61 23 146 165 160 140 131 123 110 99 86 58 5 355 344 348 355 350 346 332
100 144 119 106 110 121 126 124 127 137 100 88 90 133 141 146 146 143 141 143 148 153 159 168 164 163 167 171 172 175 147 97 96 125 136 140 154 156 158 174 182 193 196 210 207 209 205 205 200 179 178 171 189 202 197 190 175 156 150 149 157 156 162 162 136 122 177 207 162 134 129 143 131 116 110 83 40 21 5 351 348 353 354 345 334
321 313 171 146 150 152 154 150 159 152 138 131 147 151 155 148 148 148 147 144 150 158 153 155 160 163 172 171 161 138 136 140 151 153 119 77 42 358 220 167 79 135 185 197 202 208 207 199 178 172 163 171 184 215 223 192 179 172 167 160 172 172 162 160 144 162 172 179 160 162 160 137 129 121 111 74 34 2 5 352 349 350 352 337 322
300 252 309 275 160 156 166 150 139 126 147 145 153 159 160 155 150 152 149 149 149 143 143 152 158 163 162 160 150 144 148 158 160 142 123 74 56 63 34 346 161 27 25 338 237 222 203 162 143 70 77 173 199 199 134 143 141 136 124 114 111 123 137 143 152 197 206 163 164 149 137 133 121 128 123 101 14 349 337 340 347 343 343 340 340
270 264 213 227 181 171 180 131 131 136 147 153 160 162 161 161 157 154 150 144 142 140 146 152 158 167 169 157 156 157 165 164 155 138 116 121 120 52 44 42 40 25 18 12 63 143 151 168 151 132 73 51 102 112 125 132 132 132 130 135 145 156 181 184 193 170 179 170 156 149 129 124 120 134 132 143 2 341 342 330 334 342 349 344 340